{"data":{"norad_id":62451,"intl_designator":"2024-251V","name":"STARLINK-32720","alt_names":[],"object_type":"PAYLOAD","status":"ACTIVE","operator":null,"country":"US","launch_date":"2024-12-29","launch_site_code":"AFWTR","launch_vehicle":null,"mission":null,"orbit_class":"UNKNOWN","rcs_meters":null,"size_class":null,"mass_kg":null,"dimensions":null,"purposes":["comms"],"wikipedia_slug":null,"has_3d_model":false,"image_url":null,"decayed_at":null,"tle_current":{"epoch":"2026-05-24T23:06:33.532704Z","epoch_age_seconds":81861,"freshness":"FRESH","line1":"1 62451U 24251V   26144.96288811  .00003450  00000+0  12857-3 0  9999","line2":"2 62451  53.1593 341.2044 0001001  84.9586 275.1529 15.30195241 79251","mean_motion":15.30195241,"eccentricity":0.0001001,"inclination_deg":53.1593,"raan_deg":341.2044,"arg_perigee_deg":84.9586,"mean_anomaly_deg":275.1529,"bstar":0.00012857,"rev_number":7925,"period_min":94.105638379776,"perigee_km":474.54325700781,"apogee_km":475.91530093686,"semimajor_km":6853.3662789723,"source":"CELESTRAK","updated_at":"2026-05-25T13:38:19.687556Z"}}}